Year,Month,Day,Hour,Minute,Value (Times are PST for windspeed in km/hr)
2015,08,29,00,00,0.00
2015,08,29,00,01,0.00
2015,08,29,00,02,0.00
2015,08,29,00,03,0.00
2015,08,29,00,04,0.00
2015,08,29,00,05,0.00
2015,08,29,00,06,0.00
2015,08,29,00,07,0.00
2015,08,29,00,08,0.00
2015,08,29,00,09,0.00
2015,08,29,00,10,0.00
2015,08,29,00,11,0.00
2015,08,29,00,12,0.00
2015,08,29,00,13,0.00
2015,08,29,00,14,0.00
2015,08,29,00,15,0.00
2015,08,29,00,16,0.00
2015,08,29,00,17,0.00
2015,08,29,00,18,0.00
2015,08,29,00,19,0.00
2015,08,29,00,20,0.10
2015,08,29,00,21,0.00
2015,08,29,00,22,0.00
2015,08,29,00,23,0.00
2015,08,29,00,24,0.00
2015,08,29,00,25,0.00
2015,08,29,00,26,0.00
2015,08,29,00,27,0.00
2015,08,29,00,28,0.20
2015,08,29,00,29,0.10
2015,08,29,00,30,0.00
2015,08,29,00,31,0.00
2015,08,29,00,32,0.00
2015,08,29,00,33,0.00
2015,08,29,00,34,0.00
2015,08,29,00,35,0.00
2015,08,29,00,36,0.00
2015,08,29,00,37,0.10
2015,08,29,00,38,0.10
2015,08,29,00,39,0.00
2015,08,29,00,40,0.00
2015,08,29,00,41,0.00
2015,08,29,00,42,0.00
2015,08,29,00,43,0.00
2015,08,29,00,44,0.00
2015,08,29,00,45,0.00
2015,08,29,00,46,0.00
2015,08,29,00,47,0.00
2015,08,29,00,48,0.00
2015,08,29,00,49,0.00
2015,08,29,00,50,0.00
2015,08,29,00,51,0.10
2015,08,29,00,52,0.00
2015,08,29,00,53,0.00
2015,08,29,00,54,0.00
2015,08,29,00,55,0.00
2015,08,29,00,56,0.00
2015,08,29,00,57,0.00
2015,08,29,00,58,0.00
2015,08,29,00,59,0.00
2015,08,29,01,00,0.00
2015,08,29,01,01,0.00
2015,08,29,01,02,0.00
2015,08,29,01,03,0.00
2015,08,29,01,04,0.00
2015,08,29,01,05,0.00
2015,08,29,01,06,0.00
2015,08,29,01,07,0.00
2015,08,29,01,08,0.00
2015,08,29,01,09,0.00
2015,08,29,01,10,0.00
2015,08,29,01,11,0.00
2015,08,29,01,12,0.00
2015,08,29,01,13,0.00
2015,08,29,01,14,0.00
2015,08,29,01,15,0.00
2015,08,29,01,16,0.00
2015,08,29,01,17,0.00
2015,08,29,01,18,0.00
2015,08,29,01,19,0.00
2015,08,29,01,20,0.00
2015,08,29,01,21,0.00
2015,08,29,01,22,0.00
2015,08,29,01,23,0.00
2015,08,29,01,24,0.10
2015,08,29,01,25,0.10
2015,08,29,01,26,0.00
2015,08,29,01,27,0.00
2015,08,29,01,28,0.20
2015,08,29,01,29,0.90
2015,08,29,01,30,0.00
2015,08,29,01,31,0.00
2015,08,29,01,32,0.00
2015,08,29,01,33,0.00
2015,08,29,01,34,0.00
2015,08,29,01,35,0.20
2015,08,29,01,36,0.00
2015,08,29,01,37,0.00
2015,08,29,01,38,0.10
2015,08,29,01,39,0.00
2015,08,29,01,40,0.00
2015,08,29,01,41,0.00
2015,08,29,01,42,0.00
2015,08,29,01,43,0.00
2015,08,29,01,44,0.00
2015,08,29,01,45,0.00
2015,08,29,01,46,0.00
2015,08,29,01,47,0.00
2015,08,29,01,48,0.00
2015,08,29,01,49,0.00
2015,08,29,01,50,0.10
2015,08,29,01,51,0.10
2015,08,29,01,52,0.00
2015,08,29,01,53,0.20
2015,08,29,01,54,0.00
2015,08,29,01,55,0.00
2015,08,29,01,56,0.00
2015,08,29,01,57,0.00
2015,08,29,01,58,0.60
2015,08,29,01,59,0.00
2015,08,29,02,00,0.00
2015,08,29,02,01,0.00
2015,08,29,02,02,0.00
2015,08,29,02,03,0.00
2015,08,29,02,04,0.00
2015,08,29,02,05,0.00
2015,08,29,02,06,0.00
2015,08,29,02,07,0.00
2015,08,29,02,08,0.00
2015,08,29,02,09,0.00
2015,08,29,02,10,0.00
2015,08,29,02,11,0.00
2015,08,29,02,12,0.00
2015,08,29,02,13,0.00
2015,08,29,02,14,0.00
2015,08,29,02,15,0.00
2015,08,29,02,16,0.00
2015,08,29,02,17,0.00
2015,08,29,02,18,0.00
2015,08,29,02,19,0.00
2015,08,29,02,20,0.10
2015,08,29,02,21,0.00
2015,08,29,02,22,0.00
2015,08,29,02,23,0.20
2015,08,29,02,24,0.00
2015,08,29,02,25,0.20
2015,08,29,02,26,0.10
2015,08,29,02,27,0.00
2015,08,29,02,28,0.00
2015,08,29,02,29,0.00
2015,08,29,02,30,0.60
2015,08,29,02,31,0.80
2015,08,29,02,32,0.30
2015,08,29,02,33,0.10
2015,08,29,02,34,0.20
2015,08,29,02,35,1.30
2015,08,29,02,36,3.00
2015,08,29,02,37,0.60
2015,08,29,02,38,0.50
2015,08,29,02,39,0.50
2015,08,29,02,40,0.40
2015,08,29,02,41,0.90
2015,08,29,02,42,0.80
2015,08,29,02,43,1.90
2015,08,29,02,44,1.90
2015,08,29,02,45,0.10
2015,08,29,02,46,1.10
2015,08,29,02,47,0.10
2015,08,29,02,48,0.00
2015,08,29,02,49,0.00
2015,08,29,02,50,0.00
2015,08,29,02,51,0.20
2015,08,29,02,52,0.40
2015,08,29,02,53,0.30
2015,08,29,02,54,0.60
2015,08,29,02,55,0.30
2015,08,29,02,56,0.70
2015,08,29,02,57,0.20
2015,08,29,02,58,0.10
2015,08,29,02,59,0.00
2015,08,29,03,00,0.00
2015,08,29,03,01,0.00
2015,08,29,03,02,0.00
2015,08,29,03,03,0.30
2015,08,29,03,04,0.60
2015,08,29,03,05,0.20
2015,08,29,03,06,0.00
2015,08,29,03,07,0.00
2015,08,29,03,08,0.00
2015,08,29,03,09,0.00
2015,08,29,03,10,0.00
2015,08,29,03,11,0.00
2015,08,29,03,12,0.00
2015,08,29,03,13,0.30
2015,08,29,03,14,0.00
2015,08,29,03,15,0.00
2015,08,29,03,16,0.00
2015,08,29,03,17,0.10
2015,08,29,03,18,0.00
2015,08,29,03,19,0.00
2015,08,29,03,20,0.30
2015,08,29,03,21,0.00
2015,08,29,03,22,0.00
2015,08,29,03,23,0.20
2015,08,29,03,24,0.20
2015,08,29,03,25,0.00
2015,08,29,03,26,0.20
2015,08,29,03,27,0.50
2015,08,29,03,28,0.20
2015,08,29,03,29,0.10
2015,08,29,03,30,0.00
2015,08,29,03,31,0.00
2015,08,29,03,32,0.00
2015,08,29,03,33,0.00
2015,08,29,03,34,0.00
2015,08,29,03,35,0.00
2015,08,29,03,36,0.10
2015,08,29,03,37,0.60
2015,08,29,03,38,0.00
2015,08,29,03,39,0.50
2015,08,29,03,40,0.90
2015,08,29,03,41,0.00
2015,08,29,03,42,0.00
2015,08,29,03,43,0.00
2015,08,29,03,44,0.00
2015,08,29,03,45,0.00
2015,08,29,03,46,0.10
2015,08,29,03,47,0.00
2015,08,29,03,48,0.10
2015,08,29,03,49,0.00
2015,08,29,03,50,0.00
2015,08,29,03,51,0.00
2015,08,29,03,52,0.00
2015,08,29,03,53,0.00
2015,08,29,03,54,0.10
2015,08,29,03,55,0.00
2015,08,29,03,56,0.00
2015,08,29,03,57,0.00
2015,08,29,03,58,0.00
2015,08,29,03,59,0.00
2015,08,29,04,00,0.00
2015,08,29,04,01,0.00
2015,08,29,04,02,0.00
2015,08,29,04,03,0.00
2015,08,29,04,04,0.00
2015,08,29,04,05,0.10
2015,08,29,04,06,0.20
2015,08,29,04,07,0.10
2015,08,29,04,08,0.10
2015,08,29,04,09,0.00
2015,08,29,04,10,0.10
2015,08,29,04,11,0.00
2015,08,29,04,12,0.20
2015,08,29,04,13,0.00
2015,08,29,04,14,0.00
2015,08,29,04,15,0.00
2015,08,29,04,16,0.10
2015,08,29,04,17,0.20
2015,08,29,04,18,0.20
2015,08,29,04,19,0.00
2015,08,29,04,20,0.30
2015,08,29,04,21,0.00
2015,08,29,04,22,0.20
2015,08,29,04,23,0.70
2015,08,29,04,24,0.10
2015,08,29,04,25,0.00
2015,08,29,04,26,0.00
2015,08,29,04,27,0.00
2015,08,29,04,28,0.10
2015,08,29,04,29,0.00
2015,08,29,04,30,0.00
2015,08,29,04,31,0.10
2015,08,29,04,32,0.20
2015,08,29,04,33,0.40
2015,08,29,04,34,0.00
2015,08,29,04,35,0.00
2015,08,29,04,36,0.50
2015,08,29,04,37,0.00
2015,08,29,04,38,0.00
2015,08,29,04,39,0.10
2015,08,29,04,40,0.00
2015,08,29,04,41,0.00
2015,08,29,04,42,0.20
2015,08,29,04,43,0.90
2015,08,29,04,44,1.30
2015,08,29,04,45,0.10
2015,08,29,04,46,0.40
2015,08,29,04,47,0.40
2015,08,29,04,48,0.20
2015,08,29,04,49,0.50
2015,08,29,04,50,0.80
2015,08,29,04,51,0.00
2015,08,29,04,52,0.00
2015,08,29,04,53,0.90
2015,08,29,04,54,0.10
2015,08,29,04,55,0.10
2015,08,29,04,56,0.00
2015,08,29,04,57,0.00
2015,08,29,04,58,0.00
2015,08,29,04,59,0.30
2015,08,29,05,00,1.20
2015,08,29,05,01,0.20
2015,08,29,05,02,0.10
2015,08,29,05,03,0.30
2015,08,29,05,04,0.40
2015,08,29,05,05,0.60
2015,08,29,05,06,0.20
2015,08,29,05,07,0.80
2015,08,29,05,08,0.50
2015,08,29,05,09,0.90
2015,08,29,05,10,0.20
2015,08,29,05,11,0.30
2015,08,29,05,12,0.10
2015,08,29,05,13,1.00
2015,08,29,05,14,0.00
2015,08,29,05,15,0.00
2015,08,29,05,16,0.00
2015,08,29,05,17,0.10
2015,08,29,05,18,0.90
2015,08,29,05,19,0.00
2015,08,29,05,20,0.10
2015,08,29,05,21,0.10
2015,08,29,05,22,0.00
2015,08,29,05,23,0.00
2015,08,29,05,24,0.00
2015,08,29,05,25,0.00
2015,08,29,05,26,1.80
2015,08,29,05,27,0.00
2015,08,29,05,28,0.70
2015,08,29,05,29,0.10
2015,08,29,05,30,0.00
2015,08,29,05,31,0.00
2015,08,29,05,32,0.00
2015,08,29,05,33,0.00
2015,08,29,05,34,0.10
2015,08,29,05,35,0.00
2015,08,29,05,36,0.00
2015,08,29,05,37,0.00
2015,08,29,05,38,0.00
2015,08,29,05,39,0.10
2015,08,29,05,40,0.00
2015,08,29,05,41,0.20
2015,08,29,05,42,0.00
2015,08,29,05,43,1.40
2015,08,29,05,44,4.90
2015,08,29,05,45,5.30
2015,08,29,05,46,7.60
2015,08,29,05,47,12.20
2015,08,29,05,48,13.00
2015,08,29,05,49,10.10
2015,08,29,05,50,3.10
2015,08,29,05,51,4.10
2015,08,29,05,52,1.00
2015,08,29,05,53,2.00
2015,08,29,05,54,3.80
2015,08,29,05,55,4.50
2015,08,29,05,56,0.00
2015,08,29,05,57,1.40
2015,08,29,05,58,5.30
2015,08,29,05,59,6.80
2015,08,29,06,00,10.30
2015,08,29,06,01,6.50
2015,08,29,06,02,7.00
2015,08,29,06,03,7.20
2015,08,29,06,04,2.80
2015,08,29,06,05,2.40
2015,08,29,06,06,1.40
2015,08,29,06,07,3.00
2015,08,29,06,08,2.00
2015,08,29,06,09,0.40
2015,08,29,06,10,1.30
2015,08,29,06,11,0.00
2015,08,29,06,12,0.10
2015,08,29,06,13,0.40
2015,08,29,06,14,0.20
2015,08,29,06,15,0.00
2015,08,29,06,16,0.00
2015,08,29,06,17,0.00
2015,08,29,06,18,0.00
2015,08,29,06,19,0.00
2015,08,29,06,20,0.00
2015,08,29,06,21,0.00
2015,08,29,06,22,0.00
2015,08,29,06,23,0.00
2015,08,29,06,24,0.00
2015,08,29,06,25,0.50
2015,08,29,06,26,0.30
2015,08,29,06,27,1.40
2015,08,29,06,28,2.00
2015,08,29,06,29,3.80
2015,08,29,06,30,4.00
2015,08,29,06,31,0.10
2015,08,29,06,32,0.00
2015,08,29,06,33,2.20
2015,08,29,06,34,4.20
2015,08,29,06,35,5.30
2015,08,29,06,36,3.80
2015,08,29,06,37,2.80
2015,08,29,06,38,5.10
2015,08,29,06,39,5.60
2015,08,29,06,40,5.10
2015,08,29,06,41,5.10
2015,08,29,06,42,6.10
2015,08,29,06,43,4.70
2015,08,29,06,44,4.10
2015,08,29,06,45,6.30
2015,08,29,06,46,7.60
2015,08,29,06,47,6.90
2015,08,29,06,48,6.50
2015,08,29,06,49,9.00
2015,08,29,06,50,4.90
2015,08,29,06,51,7.10
2015,08,29,06,52,9.00
2015,08,29,06,53,11.80
2015,08,29,06,54,6.40
2015,08,29,06,55,9.00
2015,08,29,06,56,12.50
2015,08,29,06,57,13.40
2015,08,29,06,58,11.40
2015,08,29,06,59,9.70
2015,08,29,07,00,9.80
2015,08,29,07,01,10.40
2015,08,29,07,02,10.40
2015,08,29,07,03,6.40
2015,08,29,07,04,4.50
2015,08,29,07,05,6.90
2015,08,29,07,06,7.30
2015,08,29,07,07,9.70
2015,08,29,07,08,8.40
2015,08,29,07,09,5.60
2015,08,29,07,10,9.10
2015,08,29,07,11,8.50
2015,08,29,07,12,9.80
2015,08,29,07,13,7.60
2015,08,29,07,14,6.40
2015,08,29,07,15,3.40
2015,08,29,07,16,4.50
2015,08,29,07,17,4.50
2015,08,29,07,18,4.80
2015,08,29,07,19,5.10
2015,08,29,07,20,3.10
2015,08,29,07,21,9.70
2015,08,29,07,22,8.60
2015,08,29,07,23,11.60
2015,08,29,07,24,9.70
2015,08,29,07,25,8.90
2015,08,29,07,26,6.40
2015,08,29,07,27,6.60
2015,08,29,07,28,10.00
2015,08,29,07,29,7.00
2015,08,29,07,30,1.00
2015,08,29,07,31,4.00
2015,08,29,07,32,0.60
2015,08,29,07,33,2.50
2015,08,29,07,34,0.00
2015,08,29,07,35,0.00
2015,08,29,07,36,1.40
2015,08,29,07,37,0.10
2015,08,29,07,38,0.00
2015,08,29,07,39,0.00
2015,08,29,07,40,0.00
2015,08,29,07,41,0.00
2015,08,29,07,42,0.00
2015,08,29,07,43,0.00
2015,08,29,07,44,0.00
2015,08,29,07,45,3.10
2015,08,29,07,46,2.40
2015,08,29,07,47,1.50
2015,08,29,07,48,1.80
2015,08,29,07,49,1.30
2015,08,29,07,50,0.60
2015,08,29,07,51,2.70
2015,08,29,07,52,4.30
2015,08,29,07,53,1.30
2015,08,29,07,54,1.50
2015,08,29,07,55,0.00
2015,08,29,07,56,0.30
2015,08,29,07,57,0.00
2015,08,29,07,58,0.00
2015,08,29,07,59,0.20
2015,08,29,08,00,0.00
2015,08,29,08,01,0.00
2015,08,29,08,02,1.00
2015,08,29,08,03,0.00
2015,08,29,08,04,0.00
2015,08,29,08,05,0.00
2015,08,29,08,06,0.00
2015,08,29,08,07,0.00
2015,08,29,08,08,0.00
2015,08,29,08,09,0.00
2015,08,29,08,10,0.00
2015,08,29,08,11,0.00
2015,08,29,08,12,0.00
2015,08,29,08,13,0.20
2015,08,29,08,14,1.90
2015,08,29,08,15,1.00
2015,08,29,08,16,1.80
2015,08,29,08,17,0.00
2015,08,29,08,18,0.60
2015,08,29,08,19,8.20
2015,08,29,08,20,5.70
2015,08,29,08,21,2.50
2015,08,29,08,22,1.40
2015,08,29,08,23,2.00
2015,08,29,08,24,0.80
2015,08,29,08,25,3.80
2015,08,29,08,26,4.80
2015,08,29,08,27,1.10
2015,08,29,08,28,0.20
2015,08,29,08,29,0.00
2015,08,29,08,30,0.80
2015,08,29,08,31,0.30
2015,08,29,08,32,0.40
2015,08,29,08,33,3.90
2015,08,29,08,34,4.40
2015,08,29,08,35,8.00
2015,08,29,08,36,7.30
2015,08,29,08,37,16.90
2015,08,29,08,38,12.90
2015,08,29,08,39,7.50
2015,08,29,08,40,9.50
2015,08,29,08,41,6.40
2015,08,29,08,42,6.40
2015,08,29,08,43,1.60
2015,08,29,08,44,8.90
2015,08,29,08,45,4.60
2015,08,29,08,46,2.70
2015,08,29,08,47,4.30
2015,08,29,08,48,4.30
2015,08,29,08,49,0.40
2015,08,29,08,50,3.50
2015,08,29,08,51,6.70
2015,08,29,08,52,1.90
2015,08,29,08,53,0.30
2015,08,29,08,54,7.20
2015,08,29,08,55,8.70
2015,08,29,08,56,5.10
2015,08,29,08,57,6.00
2015,08,29,08,58,5.70
2015,08,29,08,59,5.50
2015,08,29,09,00,7.00
2015,08,29,09,01,6.00
2015,08,29,09,02,6.50
2015,08,29,09,03,7.00
2015,08,29,09,04,6.00
2015,08,29,09,05,2.80
2015,08,29,09,06,7.20
2015,08,29,09,07,7.60
2015,08,29,09,08,6.90
2015,08,29,09,09,2.60
2015,08,29,09,10,1.50
2015,08,29,09,11,2.30
2015,08,29,09,12,4.00
2015,08,29,09,13,3.50
2015,08,29,09,14,6.40
2015,08,29,09,15,8.10
2015,08,29,09,16,5.10
2015,08,29,09,17,4.80
2015,08,29,09,18,1.70
2015,08,29,09,19,5.40
2015,08,29,09,20,10.30
2015,08,29,09,21,7.80
2015,08,29,09,22,6.10
2015,08,29,09,23,1.60
2015,08,29,09,24,0.30
2015,08,29,09,25,0.80
2015,08,29,09,26,5.30
2015,08,29,09,27,6.80
2015,08,29,09,28,7.20
2015,08,29,09,29,10.90
2015,08,29,09,30,9.80
2015,08,29,09,31,8.30
2015,08,29,09,32,11.30
2015,08,29,09,33,15.80
2015,08,29,09,34,14.50
2015,08,29,09,35,12.00
2015,08,29,09,36,9.90
2015,08,29,09,37,7.20
2015,08,29,09,38,8.20
2015,08,29,09,39,5.60
2015,08,29,09,40,5.40
2015,08,29,09,41,7.40
2015,08,29,09,42,5.70
2015,08,29,09,43,8.00
2015,08,29,09,44,8.80
2015,08,29,09,45,8.70
2015,08,29,09,46,4.30
2015,08,29,09,47,2.50
2015,08,29,09,48,4.70
2015,08,29,09,49,3.40
2015,08,29,09,50,1.40
2015,08,29,09,51,8.50
2015,08,29,09,52,2.70
2015,08,29,09,53,3.70
2015,08,29,09,54,8.00
2015,08,29,09,55,7.10
2015,08,29,09,56,2.20
2015,08,29,09,57,6.20
2015,08,29,09,58,8.10
2015,08,29,09,59,4.10
2015,08,29,10,00,7.90
2015,08,29,10,01,12.60
2015,08,29,10,02,21.60
2015,08,29,10,03,19.80
2015,08,29,10,04,18.30
2015,08,29,10,05,12.80
2015,08,29,10,06,14.80
2015,08,29,10,07,16.30
2015,08,29,10,08,22.00
2015,08,29,10,09,20.20
2015,08,29,10,10,17.70
2015,08,29,10,11,19.50
2015,08,29,10,12,22.80
2015,08,29,10,13,23.90
2015,08,29,10,14,18.00
2015,08,29,10,15,17.20
2015,08,29,10,16,22.80
2015,08,29,10,17,13.10
2015,08,29,10,18,11.00
2015,08,29,10,19,20.60
2015,08,29,10,20,20.60
2015,08,29,10,21,16.00
2015,08,29,10,22,17.50
2015,08,29,10,23,22.30
2015,08,29,10,24,20.00
2015,08,29,10,25,19.30
2015,08,29,10,26,21.90
2015,08,29,10,27,18.50
2015,08,29,10,28,27.40
2015,08,29,10,29,20.50
2015,08,29,10,30,20.40
2015,08,29,10,31,20.00
2015,08,29,10,32,17.00
2015,08,29,10,33,20.50
2015,08,29,10,34,16.80
2015,08,29,10,35,22.00
2015,08,29,10,36,16.50
2015,08,29,10,37,23.10
2015,08,29,10,38,20.10
2015,08,29,10,39,22.00
2015,08,29,10,40,21.50
2015,08,29,10,41,22.00
2015,08,29,10,42,21.80
2015,08,29,10,43,14.30
2015,08,29,10,44,18.70
2015,08,29,10,45,27.10
2015,08,29,10,46,26.70
2015,08,29,10,47,24.00
2015,08,29,10,48,16.50
2015,08,29,10,49,25.40
2015,08,29,10,50,24.40
2015,08,29,10,51,20.00
2015,08,29,10,52,18.30
2015,08,29,10,53,27.90
2015,08,29,10,54,27.10
2015,08,29,10,55,25.20
2015,08,29,10,56,23.10
2015,08,29,10,57,26.10
2015,08,29,10,58,15.60
2015,08,29,10,59,18.20
2015,08,29,11,00,20.80
2015,08,29,11,01,23.10
2015,08,29,11,02,26.60
2015,08,29,11,03,23.10
2015,08,29,11,04,27.30
2015,08,29,11,05,20.00
2015,08,29,11,06,26.10
2015,08,29,11,07,25.30
2015,08,29,11,08,30.50
2015,08,29,11,09,28.90
2015,08,29,11,10,31.10
2015,08,29,11,11,26.50
2015,08,29,11,12,25.40
2015,08,29,11,13,17.90
2015,08,29,11,14,24.90
2015,08,29,11,15,26.30
2015,08,29,11,16,28.20
2015,08,29,11,17,28.10
2015,08,29,11,18,32.30
2015,08,29,11,19,27.10
2015,08,29,11,20,26.00
2015,08,29,11,21,28.20
2015,08,29,11,22,28.80
2015,08,29,11,23,20.70
2015,08,29,11,24,16.90
2015,08,29,11,25,20.20
2015,08,29,11,26,20.50
2015,08,29,11,27,19.80
2015,08,29,11,28,16.40
2015,08,29,11,29,21.30
2015,08,29,11,30,22.90
2015,08,29,11,31,21.10
2015,08,29,11,32,21.20
2015,08,29,11,33,22.80
2015,08,29,11,34,24.00
2015,08,29,11,35,20.20
2015,08,29,11,36,18.30
2015,08,29,11,37,18.00
2015,08,29,11,38,20.40
2015,08,29,11,39,20.20
2015,08,29,11,40,17.20
2015,08,29,11,41,17.00
2015,08,29,11,42,13.30
2015,08,29,11,43,11.80
2015,08,29,11,44,16.60
2015,08,29,11,45,14.80
2015,08,29,11,46,17.50
2015,08,29,11,47,13.70
2015,08,29,11,48,9.50
2015,08,29,11,49,4.10
2015,08,29,11,50,7.30
2015,08,29,11,51,8.80
2015,08,29,11,52,9.40
2015,08,29,11,53,13.80
2015,08,29,11,54,13.00
2015,08,29,11,55,16.90
2015,08,29,11,56,13.60
2015,08,29,11,57,16.40
2015,08,29,11,58,13.00
2015,08,29,11,59,13.50
2015,08,29,12,00,7.60
2015,08,29,12,01,6.00
2015,08,29,12,02,11.80
2015,08,29,12,03,9.80
2015,08,29,12,04,13.70
2015,08,29,12,05,11.90
2015,08,29,12,06,17.60
2015,08,29,12,07,4.60
2015,08,29,12,08,4.10
2015,08,29,12,09,3.80
2015,08,29,12,10,0.70
2015,08,29,12,11,0.10
2015,08,29,12,12,0.70
2015,08,29,12,13,2.00
2015,08,29,12,14,5.60
2015,08,29,12,15,7.60
2015,08,29,12,16,4.10
2015,08,29,12,17,6.70
2015,08,29,12,18,11.60
2015,08,29,12,19,6.00
2015,08,29,12,20,4.30
2015,08,29,12,21,5.80
2015,08,29,12,22,5.10
2015,08,29,12,23,2.10
2015,08,29,12,24,2.30
2015,08,29,12,25,0.10
2015,08,29,12,26,0.00
2015,08,29,12,27,2.00
2015,08,29,12,28,7.80
2015,08,29,12,29,5.10
2015,08,29,12,30,7.30
2015,08,29,12,31,6.80
2015,08,29,12,32,9.00
2015,08,29,12,33,8.60
2015,08,29,12,34,5.20
2015,08,29,12,35,1.90
2015,08,29,12,36,0.30
2015,08,29,12,37,4.40
2015,08,29,12,38,3.30
2015,08,29,12,39,11.90
2015,08,29,12,40,3.80
2015,08,29,12,41,6.50
2015,08,29,12,42,5.20
2015,08,29,12,43,6.40
2015,08,29,12,44,6.20
2015,08,29,12,45,6.90
2015,08,29,12,46,5.10
2015,08,29,12,47,8.50
2015,08,29,12,48,8.10
2015,08,29,12,49,7.20
2015,08,29,12,50,5.40
2015,08,29,12,51,16.60
2015,08,29,12,52,13.00
2015,08,29,12,53,16.50
2015,08,29,12,54,16.20
2015,08,29,12,55,21.60
2015,08,29,12,56,14.30
2015,08,29,12,57,9.10
2015,08,29,12,58,10.50
2015,08,29,12,59,8.50
2015,08,29,13,00,4.70
2015,08,29,13,01,1.70
2015,08,29,13,02,11.70
2015,08,29,13,03,13.50
2015,08,29,13,04,14.40
2015,08,29,13,05,11.90
2015,08,29,13,06,11.80
2015,08,29,13,07,7.80
2015,08,29,13,08,7.60
2015,08,29,13,09,9.30
2015,08,29,13,10,7.50
2015,08,29,13,11,6.50
2015,08,29,13,12,6.10
2015,08,29,13,13,14.10
2015,08,29,13,14,12.60
2015,08,29,13,15,16.30
2015,08,29,13,16,17.00
2015,08,29,13,17,14.00
2015,08,29,13,18,16.30
2015,08,29,13,19,4.90
2015,08,29,13,20,6.00
2015,08,29,13,21,7.70
2015,08,29,13,22,8.60
2015,08,29,13,23,8.10
2015,08,29,13,24,3.50
2015,08,29,13,25,0.40
2015,08,29,13,26,0.00
2015,08,29,13,27,6.30
2015,08,29,13,28,8.70
2015,08,29,13,29,7.40
2015,08,29,13,30,8.40
2015,08,29,13,31,6.60
2015,08,29,13,32,6.60
2015,08,29,13,33,8.90
2015,08,29,13,34,10.50
2015,08,29,13,35,6.70
2015,08,29,13,36,10.10
2015,08,29,13,37,6.70
2015,08,29,13,38,12.90
2015,08,29,13,39,10.60
2015,08,29,13,40,11.60
2015,08,29,13,41,10.50
2015,08,29,13,42,9.20
2015,08,29,13,43,8.10
2015,08,29,13,44,9.30
2015,08,29,13,45,12.30
2015,08,29,13,46,8.50
2015,08,29,13,47,8.10
2015,08,29,13,48,14.50
2015,08,29,13,49,23.70
2015,08,29,13,50,20.60
2015,08,29,13,51,48.10
2015,08,29,13,52,21.40
2015,08,29,13,53,28.30
2015,08,29,13,54,48.10
2015,08,29,13,55,37.50
2015,08,29,13,56,27.90
2015,08,29,13,57,21.70
2015,08,29,13,58,25.00
2015,08,29,13,59,41.10
2015,08,29,14,00,44.40
2015,08,29,14,01,36.90
2015,08,29,14,02,39.30
2015,08,29,14,03,32.50
2015,08,29,14,04,41.80
2015,08,29,14,05,42.40
2015,08,29,14,06,25.40
2015,08,29,14,07,29.00
2015,08,29,14,08,30.30
2015,08,29,14,09,28.80
2015,08,29,14,10,25.30
2015,08,29,14,11,24.20
2015,08,29,14,12,24.20
2015,08,29,14,13,24.20
2015,08,29,14,14,22.30
2015,08,29,14,15,37.10
2015,08,29,14,16,26.10
2015,08,29,14,17,22.00
2015,08,29,14,18,30.60
2015,08,29,14,19,34.60
2015,08,29,14,20,28.60
2015,08,29,14,21,14.50
2015,08,29,14,22,23.30
2015,08,29,14,23,33.10
2015,08,29,14,24,34.60
2015,08,29,14,25,24.90
2015,08,29,14,26,16.70
2015,08,29,14,27,35.60
2015,08,29,14,28,24.80
2015,08,29,14,29,36.00
2015,08,29,14,30,36.80
2015,08,29,14,31,23.70
2015,08,29,14,32,29.60
2015,08,29,14,33,27.00
2015,08,29,14,34,25.40
2015,08,29,14,35,29.80
2015,08,29,14,36,31.40
2015,08,29,14,37,24.80
2015,08,29,14,38,19.20
2015,08,29,14,39,20.20
2015,08,29,14,40,20.70
2015,08,29,14,41,22.10
2015,08,29,14,42,21.80
2015,08,29,14,43,19.00
2015,08,29,14,44,25.80
2015,08,29,14,45,23.60
2015,08,29,14,46,22.90
2015,08,29,14,47,16.90
2015,08,29,14,48,20.10
2015,08,29,14,49,22.50
2015,08,29,14,50,19.90
2015,08,29,14,51,25.10
2015,08,29,14,52,24.00
2015,08,29,14,53,20.80
2015,08,29,14,54,13.50
2015,08,29,14,55,16.90
2015,08,29,14,56,21.80
2015,08,29,14,57,20.90
2015,08,29,14,58,16.40
2015,08,29,14,59,16.90
2015,08,29,15,00,14.30
2015,08,29,15,01,25.40
2015,08,29,15,02,24.90
2015,08,29,15,03,19.80
2015,08,29,15,04,15.20
2015,08,29,15,05,16.20
2015,08,29,15,06,14.10
2015,08,29,15,07,12.60
2015,08,29,15,08,12.50
2015,08,29,15,09,16.30
2015,08,29,15,10,26.30
2015,08,29,15,11,17.60
2015,08,29,15,12,10.10
2015,08,29,15,13,15.00
2015,08,29,15,14,8.40
2015,08,29,15,15,16.00
2015,08,29,15,16,14.60
2015,08,29,15,17,12.40
2015,08,29,15,18,11.90
2015,08,29,15,19,7.40
2015,08,29,15,20,13.80
2015,08,29,15,21,16.10
2015,08,29,15,22,18.40
2015,08,29,15,23,14.70
2015,08,29,15,24,19.80
2015,08,29,15,25,19.50
2015,08,29,15,26,16.30
2015,08,29,15,27,15.70
2015,08,29,15,28,15.80
2015,08,29,15,29,17.90
2015,08,29,15,30,16.00
2015,08,29,15,31,17.90
2015,08,29,15,32,14.60
2015,08,29,15,33,11.40
2015,08,29,15,34,18.60
2015,08,29,15,35,12.70
2015,08,29,15,36,13.40
2015,08,29,15,37,11.20
2015,08,29,15,38,13.30
2015,08,29,15,39,12.30
2015,08,29,15,40,14.90
2015,08,29,15,41,8.60
2015,08,29,15,42,13.20
2015,08,29,15,43,10.90
2015,08,29,15,44,7.60
2015,08,29,15,45,12.80
2015,08,29,15,46,11.00
2015,08,29,15,47,9.30
2015,08,29,15,48,7.20
2015,08,29,15,49,10.90
2015,08,29,15,50,9.70
2015,08,29,15,51,8.70
2015,08,29,15,52,13.20
2015,08,29,15,53,9.30
2015,08,29,15,54,6.20
2015,08,29,15,55,12.20
2015,08,29,15,56,7.00
2015,08,29,15,57,5.90
2015,08,29,15,58,10.00
2015,08,29,15,59,6.80
2015,08,29,16,00,5.40
2015,08,29,16,01,6.00
2015,08,29,16,02,8.70
2015,08,29,16,03,8.20
2015,08,29,16,04,5.00
2015,08,29,16,05,4.00
2015,08,29,16,06,4.80
2015,08,29,16,07,6.80
2015,08,29,16,08,6.80
2015,08,29,16,09,13.10
2015,08,29,16,10,16.80
2015,08,29,16,11,8.20
2015,08,29,16,12,3.40
2015,08,29,16,13,11.60
2015,08,29,16,14,10.50
2015,08,29,16,15,6.70
2015,08,29,16,16,4.90
2015,08,29,16,17,14.40
2015,08,29,16,18,9.50
2015,08,29,16,19,13.60
2015,08,29,16,20,8.10
2015,08,29,16,21,7.40
2015,08,29,16,22,5.50
2015,08,29,16,23,11.70
2015,08,29,16,24,9.30
2015,08,29,16,25,7.70
2015,08,29,16,26,3.50
2015,08,29,16,27,0.10
2015,08,29,16,28,0.00
2015,08,29,16,29,0.00
2015,08,29,16,30,2.20
2015,08,29,16,31,2.20
2015,08,29,16,32,1.40
2015,08,29,16,33,0.10
2015,08,29,16,34,0.00
2015,08,29,16,35,0.50
2015,08,29,16,36,1.40
2015,08,29,16,37,0.00
2015,08,29,16,38,0.00
2015,08,29,16,39,3.60
2015,08,29,16,40,2.00
2015,08,29,16,41,0.60
2015,08,29,16,42,3.30
2015,08,29,16,43,0.90
2015,08,29,16,44,5.00
2015,08,29,16,45,2.10
2015,08,29,16,46,1.50
2015,08,29,16,47,3.50
2015,08,29,16,48,6.00
2015,08,29,16,49,4.10
2015,08,29,16,50,5.50
2015,08,29,16,51,4.70
2015,08,29,16,52,2.60
2015,08,29,16,53,1.80
2015,08,29,16,54,0.00
2015,08,29,16,55,0.00
2015,08,29,16,56,0.00
2015,08,29,16,57,0.00
2015,08,29,16,58,0.00
2015,08,29,16,59,0.00
2015,08,29,17,00,0.00
2015,08,29,17,01,0.00
2015,08,29,17,02,0.00
2015,08,29,17,03,0.00
2015,08,29,17,04,0.00
2015,08,29,17,05,0.00
2015,08,29,17,06,0.00
2015,08,29,17,07,0.00
2015,08,29,17,08,0.00
2015,08,29,17,09,0.00
2015,08,29,17,10,0.00
2015,08,29,17,11,0.00
2015,08,29,17,12,0.00
2015,08,29,17,13,0.00
2015,08,29,17,14,0.00
2015,08,29,17,15,0.00
2015,08,29,17,16,0.00
2015,08,29,17,17,0.00
2015,08,29,17,18,0.00
2015,08,29,17,19,0.00
2015,08,29,17,20,0.00
2015,08,29,17,21,0.00
2015,08,29,17,22,0.00
2015,08,29,17,23,0.00
2015,08,29,17,24,0.00
2015,08,29,17,25,0.00
2015,08,29,17,26,0.00
2015,08,29,17,27,0.00
2015,08,29,17,28,0.00
2015,08,29,17,29,0.00
2015,08,29,17,30,0.00
2015,08,29,17,31,0.00
2015,08,29,17,32,0.00
2015,08,29,17,33,0.00
2015,08,29,17,34,0.00
2015,08,29,17,35,0.00
2015,08,29,17,36,0.00
2015,08,29,17,37,0.00
2015,08,29,17,38,0.00
2015,08,29,17,39,0.00
2015,08,29,17,40,0.00
2015,08,29,17,41,1.20
2015,08,29,17,42,3.50
2015,08,29,17,43,2.90
2015,08,29,17,44,4.50
2015,08,29,17,45,5.70
2015,08,29,17,46,4.10
2015,08,29,17,47,5.80
2015,08,29,17,48,5.10
2015,08,29,17,49,4.30
2015,08,29,17,50,3.30
2015,08,29,17,51,1.40
2015,08,29,17,52,0.10
2015,08,29,17,53,0.70